Weather Roundup
Issued by NWS

Home | Current Version | Previous Version | Text Only | Print | Product List | Glossary On
Versions: 1 2 3 4 5 6 7 8 9 10 11 12 13 14 15 16 17 18 19 20 21 22 23 24 25 26 27 28 29 30 31 32 33 34 35 36 37 38 39 40 41 42 43 44 45 46 47 48 49 50
000
NZUS93 KARX 292210
HRRWXR

CURRENT HOURLY OBSERVATIONS ACROSS
MUCH OF THE UPPER MISSISSIPPI VALLEY
NATIONAL WEATHER SERVICE LA CROSSE WI
500 PM CDT FRI JUL 29 2016


...SOUTHEAST MINNESOTA...


CITY           SKY/WX    TMP DP  RH WIND       PRES   REMARKS
ROCHESTER      MOSUNNY   77  62  59 N13       30.02F
ROCHESTER/MAYO FAIR      76  57  53 N9        30.02S
WINONA         CLOUDY    77  61  57 NE7       29.99S
AUSTIN         MOSUNNY   75  57  53 NE6       30.02R
ALBERT LEA     PTSUNNY   73  61  64 N10       30.03R
DODGE CENTER   MOSUNNY   73  57  56 N7        30.03S
PRESTON        CLOUDY    72  61  69 NE8       30.02S
OWATONNA       SUNNY     75  55  50 NE7       30.03S
FARIBAULT      SUNNY     75  55  50 CALM      30.04R
$$

...ELSEWHERE IN MINNESOTA...


CITY           SKY/WX    TMP DP  RH WIND       PRES   REMARKS
MINNEAPOLIS    MOSUNNY   78  50  37 N12G17    30.03S
INTNL FALLS    PTSUNNY   76  56  49 CALM      30.04F
DULUTH         MOSUNNY   73  52  47 VRB6      30.08F
RED WING       SUNNY     79  48  34 NE6       30.00F
REDWOOD FALLS  MOSUNNY   79  55  43 NE6       30.04F
MANKATO        SUNNY     75  54  46 N9        30.03S
WORTHINGTON    MOSUNNY   75  57  53 NE9       30.06F
FAIRMONT       CLOUDY    75  59  57 N9        30.03S
$$

...SOUTHWEST WISCONSIN...


CITY           SKY/WX    TMP DP  RH WIND       PRES   REMARKS
LA CROSSE      CLOUDY    76  64  66 E7        29.98S
PRAIRIE DU CHI CLOUDY    69  64  83 NE5       29.98S
BOSCOBEL       LGT RAIN  69  67  93 CALM      29.99R
LONE ROCK      CLOUDY    71  66  84 N7        29.98S
PLATTEVILLE    CLOUDY    72  69  90 NE8       29.97S
FORT MC COY    CLOUDY    73  64  75 E8        30.01S
CAMP DOUGLAS   CLOUDY    70  64  83 NE7       30.01S
MAUSTON-NEW LI CLOUDY    69  65  85 CALM      30.01R
VIROQUA        CLOUDY    72  64  78 NE7       30.01R
WIS DELLS      LGT RAIN  67  65  91 NE5       30.00S
$$

...ELSEWHERE IN WISCONSIN...


CITY           SKY/WX    TMP DP  RH WIND       PRES   REMARKS
MILWAUKEE      PTSUNNY   72  65  78 NE13      29.97F
MADISON        CLOUDY    74  64  71 E15       29.97S
GREEN BAY      PTSUNNY   74  64  71 NE14      30.01S
EAU CLAIRE     PTSUNNY   80  59  48 VRB7      30.00F
BLACK RVR FLS  CLOUDY    75  63  67 E6        30.00S
MEDFORD        CLOUDY    72  61  69 CALM      30.05R
WAUSAU         CLOUDY    73  61  65 E7        30.02S
WIS RAPIDS     CLOUDY    72  62  71 E7        30.03S
MARSHFIELD     CLOUDY    74  59  59 E7        30.02S
RICE LAKE      SUNNY     76  54  46 NE5       30.05S
$$

...NORTHEAST IOWA...


CITY           SKY/WX    TMP DP  RH WIND       PRES   REMARKS
WATERLOO       CLOUDY    70  63  78 N8        29.98S
DUBUQUE        CLOUDY    70  66  87 N8        29.97S
DECORAH        CLOUDY    70  66  88 N5        29.98F
MASON CITY     CLOUDY    73  61  65 NE7       30.03S
CHARLES CITY   CLOUDY    72  66  83 NE7       30.01S
OELWEIN        CLOUDY    70  64  83 N13       29.99S
$$

...ELSEWHERE IN IOWA...


CITY           SKY/WX    TMP DP  RH WIND       PRES   REMARKS
DES MOINES     CLOUDY    73  64  73 N7        29.98F
IOWA CITY      PTSUNNY   76  67  73 N10       29.94S
FORT DODGE     CLOUDY    70  61  73 CALM      30.03F
MARSHALLTOWN   PTSUNNY   72  66  81 N10       29.98S
CEDAR RAPIDS   CLOUDY    72  69  90 N9        29.95R
$$

...NORTHERN ILLINOIS...


CITY           SKY/WX    TMP DP  RH WIND       PRES   REMARKS
CHICAGO-OHARE  CLOUDY    74  70  87 NE14      29.92S
CHICAGO-MIDWAY PTSUNNY   76  71  85 NE10      29.92R
MOLINE         PTSUNNY   81  67  62 N9        29.91R
ROCKFORD       TSTM      69  66  90 NE12G23   29.95S FOG
PEORIA         SUNNY     80  67  64 W9        29.91R
$$

NOTE: "FAIR" INDICATES FEW OR NO CLOUDS BELOW 12,000 FEET WITH NO
SIGNIFICANT WEATHER AND/OR OBSTRUCTIONS TO VISIBILITY. WIND
SPEEDS ARE IN MILES-PER-HOUR.




USA.gov is the U.S. government's official web portal to all federal, state and local government web resources and services.